[[{"header":{"parameterUnit":"m.s-1","parameterCategory":1,"la1":30.2992,"la2":30.254,"lo1":-89.0895,"lo2":-89.0443,"dy":0.0025,"dx":0.0025,"nx":19,"ny":19,"refTime":"2026-04-10T03:00:00:Z","depth":0,"parameterNumber":2,"parameterNumberName":"U-component_of_WINDS"},"data":[0,0,0,-3.2916,-3.2917,-3.2923,-3.2922,-3.2988,-3.2989,0,0,0,0,0,0,0,0,0,0,0,-3.2949,-3.295,-3.2916,-3.2917,-3.2923,-3.2922,-3.2988,-3.2989,0,0,0,0,0,0,0,0,0,0,0,-3.2948,-3.295,-3.2952,-3.2917,-3.2923,-3.2922,-3.2988,-3.2963,0,0,0,0,0,0,0,0,0,0,-3.2948,-3.301,-3.2949,-3.2952,-3.2918,-3.2923,-3.2922,-3.2961,-3.2965,-3.301,0,-3.3058,0,-3.3025,-3.2997,-3.2998,0,0,0,-3.2893,-3.3008,-3.2978,-3.2952,-3.2918,-3.2923,-3.2913,-3.2962,-3.2967,-3.3016,-3.3059,-3.3059,-3.3026,-3.2998,-3.2998,-3.334,-3.3343,0,0,-3.2892,-3.2969,-3.2975,-3.2983,-3.2983,-3.2913,-3.2914,-3.2964,-3.3017,-3.3059,-3.306,-3.3027,-3.2999,-3.3,-3.3337,-3.3341,0,0,0,-3.2908,-3.297,-3.2937,-3.2981,-3.2978,-3.2914,-3.2914,-3.3014,-3.2997,-3.306,-3.3028,-3.2999,-3.3001,-3.3334,-3.3338,-3.3549,0,0,0,-3.2907,-3.2978,-3.2938,-3.2985,-3.2978,-3.2996,-3.2965,-3.2994,-3.2997,-3.3028,-3.2999,-3.3002,-3.3331,-3.3336,-3.3537,-3.3638,0,0,0,-3.2937,-3.2981,-3.2994,-3.2989,-3.2994,-3.2993,-3.2978,-3.2993,-3.2979,-3.2998,-3.3002,-3.3329,-3.3335,-3.3526,-3.3619,-3.3751,0,0,0,-3.2992,-3.3182,-3.2998,-3.3198,-3.2995,-3.3123,-3.2977,-3.3069,-3.311,-3.3,-3.3331,-3.3338,-3.3522,-3.3607,-3.3739,-3.3877,-3.3941,0,0,-3.3274,-3.3219,-3.333,-3.3166,-3.3346,-3.3116,-3.3327,-3.3293,-3.3226,-3.3306,-3.3313,-3.3541,-3.3618,-3.3748,-3.4268,-3.4319,0,0,0,-3.3446,-3.3527,-3.3558,-3.36,-3.3577,-3.3566,-3.3491,-3.3478,-3.3542,-3.3282,-3.362,-3.3664,-3.3737,-3.38,-3.3844,-3.3903,-3.3369,-3.3369,-3.3368,-3.3959,-3.386,-3.4038,-3.394,-3.3983,-3.3902,-3.3928,-3.3897,-3.3787,-3.3869,-3.3893,-3.422,-3.4296,-3.4328,-3.4391,-3.3956,-3.3956,-3.3957,-3.3958,-3.4366,-3.4467,-3.4312,-3.443,-3.4326,-3.4424,-3.4354,-3.4273,-3.4351,-3.4194,-3.4254,-3.4094,-3.4388,-3.4438,-3.3973,-3.397,-3.3968,-3.3967,-3.3966,-3.4694,-3.4724,-3.4703,-3.4752,-3.4802,-3.4695,-3.4777,-3.4678,-3.4586,-3.4645,-3.4661,-3.4657,-3.4644,-3.4659,-3.466,-3.4661,-3.4662,-3.4663,-3.4664,-3.5043,-3.5012,-3.5091,-3.5082,-3.5095,-3.51,-3.502,-3.5031,-3.5018,-3.494,-3.494,-3.4824,-3.4433,-3.4339,-3.4681,-3.4678,-3.4676,-3.4674,-3.4673,-3.5498,-3.5378,-3.5502,-3.5515,-3.5495,-3.5551,-3.5422,-3.5453,-3.5448,-3.5492,-3.5361,-3.5087,-3.5024,-3.4989,-3.491,-3.538,-3.5379,-3.538,-3.538,-3.5777,-3.5733,-3.5836,-3.5864,-3.5879,-3.5775,-3.592,-3.586,-3.5779,-3.577,-3.5687,-3.5573,-3.5542,-3.5497,-3.5451,-3.5376,-3.5954,-3.5954,-3.5955,-3.6052,-3.6005,-3.6147,-3.6063,-3.604,-3.6023,-3.6156,-3.6196,-3.608,-3.5976,-3.5762,-3.5738,-3.5553,-3.5497,-3.5393,-3.5323,-3.5184,0,0]},{"header":{"parameterUnit":"m.s-1","parameterCategory":1,"la1":30.2992,"la2":30.254,"lo1":-89.0895,"lo2":-89.0443,"dy":0.0025,"dx":0.0025,"nx":19,"ny":19,"refTime":"2026-04-10T03:00:00:Z","depth":0,"parameterNumber":3,"parameterNumberName":"V-component_of_WINDS"},"data":[0,0,0,-0.5547,-0.5547,-0.5562,-0.5562,-0.5563,-0.5563,0,0,0,0,0,0,0,0,0,0,0,-0.5534,-0.5534,-0.5547,-0.5547,-0.5562,-0.5562,-0.5563,-0.5563,0,0,0,0,0,0,0,0,0,0,0,-0.5534,-0.5534,-0.5533,-0.5547,-0.5562,-0.5562,-0.5563,-0.5558,0,0,0,0,0,0,0,0,0,0,-0.5546,-0.5526,-0.5534,-0.5533,-0.5547,-0.5562,-0.5562,-0.5558,-0.5558,-0.5549,0,-0.5541,0,-0.5552,-0.5562,-0.5562,0,0,0,-0.5553,-0.5526,-0.5538,-0.5533,-0.5547,-0.5562,-0.5557,-0.5558,-0.5558,-0.5549,-0.5541,-0.5541,-0.5552,-0.5562,-0.5562,-0.5493,-0.5492,0,0,-0.5552,-0.5532,-0.5538,-0.5538,-0.5537,-0.5556,-0.5557,-0.5558,-0.5547,-0.5541,-0.5542,-0.5552,-0.5562,-0.5561,-0.5494,-0.5493,0,0,0,-0.5546,-0.5531,-0.5543,-0.5537,-0.5541,-0.5557,-0.5558,-0.5547,-0.5553,-0.5542,-0.5552,-0.5561,-0.5561,-0.5494,-0.5493,-0.5442,0,0,0,-0.5546,-0.5527,-0.5542,-0.553,-0.5541,-0.5545,-0.5546,-0.5553,-0.5554,-0.5552,-0.5561,-0.5561,-0.5495,-0.5494,-0.5445,-0.5421,0,0,0,-0.5536,-0.5526,-0.5525,-0.5528,-0.5534,-0.5545,-0.5551,-0.5554,-0.5559,-0.5562,-0.5561,-0.5496,-0.5494,-0.5448,-0.5425,-0.5395,0,0,0,-0.5519,-0.548,-0.5524,-0.5484,-0.5534,-0.5515,-0.5552,-0.5538,-0.5534,-0.5561,-0.5495,-0.5494,-0.5449,-0.5428,-0.5398,-0.5365,-0.535,0,0,-0.5458,-0.5472,-0.5451,-0.549,-0.5458,-0.5514,-0.5473,-0.5489,-0.5508,-0.5496,-0.5495,-0.5444,-0.5426,-0.5396,-0.5276,-0.5264,0,0,0,-0.5424,-0.5408,-0.5404,-0.5399,-0.5411,-0.5418,-0.5443,-0.5448,-0.5439,-0.5499,-0.5427,-0.5417,-0.54,-0.5385,-0.5374,-0.536,-0.5486,-0.5487,-0.5487,-0.5307,-0.5334,-0.5299,-0.5326,-0.5321,-0.5346,-0.5344,-0.5355,-0.5384,-0.5366,-0.5362,-0.5286,-0.5268,-0.5261,-0.5246,-0.5349,-0.5349,-0.5348,-0.5348,-0.5219,-0.5199,-0.5237,-0.5217,-0.5244,-0.5227,-0.5248,-0.5269,-0.5255,-0.5292,-0.5279,-0.5315,-0.5247,-0.5234,-0.5345,-0.5345,-0.5346,-0.5346,-0.5346,-0.5144,-0.5139,-0.5147,-0.5142,-0.5134,-0.5164,-0.5148,-0.5174,-0.5198,-0.5185,-0.5182,-0.5183,-0.5185,-0.5182,-0.5182,-0.5182,-0.5181,-0.5181,-0.5181,-0.5062,-0.5073,-0.5057,-0.5065,-0.5064,-0.5067,-0.509,-0.509,-0.5096,-0.5115,-0.5115,-0.5143,-0.5236,-0.5257,-0.5177,-0.5178,-0.5178,-0.5179,-0.5179,-0.4959,-0.4986,-0.4962,-0.4962,-0.4972,-0.4961,-0.4995,-0.4991,-0.4994,-0.4985,-0.5016,-0.5081,-0.5097,-0.5105,-0.5123,-0.5013,-0.5013,-0.5013,-0.5013,-0.4894,-0.4905,-0.4885,-0.4882,-0.4882,-0.4909,-0.4878,-0.4895,-0.4916,-0.4919,-0.4939,-0.4966,-0.4973,-0.4984,-0.4995,-0.5012,-0.4876,-0.4876,-0.4876,-0.4831,-0.4843,-0.4812,-0.4835,-0.4844,-0.4851,-0.4822,-0.4814,-0.4845,-0.4871,-0.4921,-0.4927,-0.497,-0.4983,-0.5009,-0.5025,-0.5057,0,0]}]]